Temperature
9 9 9 9 9 9 9 9 9 9 9 10 10 10 10 10 10 10 10 10 10 10 10 10 10 10 10 10 10 10 10 11 10 10 10 10 10 10 11 10 10 10 10
9 9 9 9 9 9 9 9 9 9 9 9 9 9 9 9 9 10 10 10 10 10 10 10 10 10 10 10 10 10 10 10 10 10 10 10 10 10 10 10 10 10 10
8 8 8 8 8 8 8 8 8 8 8 8 9 9 9 9 9 9 9 9 9 9 10 9 9 9 9 9 9 9 9 10 9 10 10 10 10 10 10 10 10 10 10
7 7 8 8 8 8 8 8 8 8 8 8 8 8 8 8 8 9 9 9 9 9 9 9 9 9 9 9 9 9 9 9 9 9 9 9 9 9 9 9 9 9 9
7 7 7 7 7 7 7 7 7 7 7 7 7 8 8 8 8 8 8 8 8 8 8 9 9 9 9 9 9 8 8 8 9 9 9 9 9 9 9 9 9 9 9
6 6 6 6 7 7 7 7 7 7 7 7 7 7 7 7 7 7 8 8 8 8 8 8 8 8 8 8 8 8 8 8 8 8 8 8 8 8 8 8 8 8 8
6 6 6 6 6 6 6 6 6 6 6 6 6 6 6 6 6 7 7 7 7 7 7 7 7 8 8 8 8 8 8 7 7 8 8 7 7 8 8 8 8 8 8
5 5 5 5 5 5 5 5 5 5 5 5 5 5 5 5 6 6 6 6 7 7 7 7 7 7 7 7 7 7 7 7 7 7 7 7 7 7 7 7 7 7 8
5 5 5 5 5 5 5 5 5 5 5 5 5 4 4 5 4 5 6 6 6 6 6 6 6 6 6 6 7 7 7 7 7 6 6 7 7 7 7 7 7 7 7
4 4 4 4 4 4 4 4 4 4 4 4 4 4 4 4 4 4 5 5 5 6 6 6 6 6 6 6 6 6 6 6 6 6 6 6 6 6 6 6 6 6 7
4 4 4 4 4 4 4 4 4 4 4 4 4 4 4 4 4 3 3 4 4 5 5 5 5 6 6 6 5 6 6 6 6 5 5 5 6 6 6 6 6 6 6
3 3 3 3 3 3 3 3 3 3 3 3 3 3 3 3 3 3 3 3 3 4 4 5 5 5 5 5 5 5 5 5 5 5 5 5 5 5 5 5 5 6 6
3 3 3 3 3 3 3 3 3 3 3 3 3 3 3 2 3 3 3 2 2 3 3 4 4 4 4 4 5 5 5 5 5 5 5 5 5 5 5 5 5 5 5
2 2 2 2 2 2 2 2 2 2 2 2 2 2 2 2 2 2 2 2 2 2 2 3 3 4 4 4 4 4 4 4 4 4 4 4 4 4 4 4 4 4 5
1 1 1 2 2 2 1 1 1 1 1 1 1 1 1 2 2 2 2 2 2 1 1 2 2 3 3 3 3 3 3 4 4 4 4 4 4 4 4 4 4 4 4
1 1 1 1 1 1 1 1 1 1 1 1 1 1 1 1 1 1 1 1 1 1 1 1 2 2 2 2 2 3 3 3 3 3 3 3 3 3 3 3 3 3 3
0 0 -0 0 0 0 0 0 0 0 0 0 0 0 0 1 1 1 1 1 0 0 0 0 1 1 1 1 2 2 2 2 2 2 2 2 2 2 2 2 2 3 3
-1 -1 -1 -1 -1 -1 -1 -0 -0 -0 -0 -0 -0 -0 -0 0 0 0 -0 -0 -0 -0 -0 -0 0 0 1 1 1 1 1 1 1 2 2 2 2 2 2 2 2 2 2
-1 -1 -2 -2 -2 -2 -1 -1 -1 -1 -1 -1 -1 -1 -1 -1 -1 -1 -1 -1 -1 -1 -1 -1 -1 -1 -0 0 0 0 0 1 1 1 1 1 1 1 1 1 1 1 2
-2 -2 -2 -2 -2 -2 -2 -2 -2 -2 -2 -2 -1 -1 -1 -1 -1 -1 -1 -1 -1 -1 -1 -2 -1 -1 -1 -1 -1 -0 -0 -0 0 0 0 0 1 1 1 1 1 1 1
-2 -2 -3 -3 -3 -3 -3 -2 -2 -2 -2 -2 -2 -2 -2 -2 -2 -2 -2 -2 -2 -2 -2 -2 -2 -2 -2 -2 -1 -1 -1 -1 -1 -1 -1 -0 -0 -0 -0 -0 0 0 0
-3 -3 -3 -3 -3 -3 -3 -3 -3 -3 -3 -3 -3 -3 -3 -3 -3 -3 -3 -3 -3 -3 -3 -3 -3 -3 -3 -3 -2 -2 -2 -2 -2 -2 -2 -1 -1 -1 -1 -1 -1 -1 -0
-3 -3 -3 -4 -4 -3 -4 -4 -4 -4 -4 -4 -4 -4 -4 -4 -4 -4 -3 -3 -3 -3 -4 -4 -4 -4 -3 -3 -3 -3 -3 -3 -3 -3 -3 -2 -2 -2 -2 -2 -1 -1 -1
-4 -4 -4 -4 -4 -4 -4 -4 -4 -4 -4 -4 -4 -4 -5 -5 -4 -4 -4 -4 -4 -4 -4 -4 -4 -4 -4 -4 -4 -4 -4 -4 -4 -4 -4 -4 -3 -3 -3 -2 -2 -2 -2
-5 -5 -5 -5 -5 -5 -5 -5 -5 -5 -5 -5 -5 -5 -5 -5 -5 -5 -5 -5 -5 -5 -5 -5 -5 -5 -5 -5 -5 -5 -5 -5 -5 -4 -4 -4 -4 -4 -4 -3 -3 -3 -3
-5 -5 -5 -6 -6 -6 -6 -6 -6 -6 -6 -6 -6 -6 -6 -6 -6 -6 -6 -6 -6 -6 -5 -5 -5 -5 -5 -5 -5 -5 -5 -6 -6 -6 -5 -5 -5 -5 -5 -5 -4 -4 -4
Wind_Speed
2 2 2 2 2 2 2 2 2 3 3 3 3 2 2 2 3 3 4 7 7 6 5 5 5 5 5 5 6 6 6 6 6 6 7 7 6 6 6 6 6 6 6
2 2 2 2 2 1 1 2 2 2 2 2 2 2 2 1 2 2 2 4 6 6 5 4 3 3 4 4 4 5 5 5 5 5 4 5 5 5 5 4 5 5 5
2 2 2 2 2 2 2 2 2 2 2 1 1 1 1 1 1 1 1 1 2 4 5 4 3 2 2 2 3 3 3 4 4 4 3 3 3 3 4 4 3 3 3
2 2 1 2 2 2 2 2 2 2 1 1 1 1 1 1 0 0 0 1 1 1 2 4 3 3 2 1 2 2 2 3 3 3 3 2 2 2 2 3 3 2 2
2 2 1 1 2 2 2 2 2 2 2 1 1 0 0 1 1 1 1 0 0 1 1 1 2 3 3 1 1 1 1 1 1 2 2 2 1 1 1 2 2 2 2
3 2 1 2 2 2 2 2 2 1 1 1 1 0 1 1 1 1 2 1 1 0 1 1 1 1 2 3 1 1 1 1 1 1 1 2 2 2 2 2 2 2 3
3 3 2 2 2 2 3 3 2 3 2 1 1 1 1 1 2 2 2 2 2 2 1 1 1 1 1 0 1 1 1 2 2 2 2 2 2 3 3 3 3 3 3
3 3 3 3 3 2 3 4 3 2 2 2 2 2 2 2 2 2 2 2 3 2 2 3 2 2 2 1 1 1 2 3 3 3 3 4 4 4 5 5 5 4 5
4 3 4 3 3 3 4 4 4 4 3 3 2 2 2 3 1 2 3 3 3 3 3 3 4 4 3 2 2 1 2 3 4 4 5 5 5 5 6 6 6 6 6
4 4 4 4 4 4 4 4 4 4 5 4 3 3 3 2 2 2 2 3 3 3 4 3 4 4 4 3 2 2 2 4 5 6 6 6 7 7 7 7 8 8 7
4 5 5 5 4 4 4 5 5 5 5 5 4 3 3 3 4 4 4 3 3 3 3 4 4 4 4 4 3 2 3 4 5 6 6 7 7 8 8 8 8 9 9
3 5 5 5 5 5 5 5 5 6 5 6 5 4 4 3 4 4 5 4 4 3 3 3 4 4 4 4 4 3 4 5 6 6 7 8 8 8 9 9 9 10 9
4 5 5 5 5 6 6 5 5 5 6 6 6 5 5 5 4 4 5 4 5 4 4 4 4 4 5 5 5 5 5 5 6 7 8 9 9 9 9 10 10 10 11
4 5 5 6 6 6 6 6 5 6 5 6 7 7 5 5 5 5 4 4 4 5 5 5 3 5 5 5 6 6 7 7 8 8 9 9 10 10 10 10 11 11 11
4 4 5 5 6 6 6 6 5 6 6 6 6 7 6 5 5 5 5 5 5 5 6 5 4 4 4 5 6 7 8 8 9 10 10 10 10 11 11 11 11 11 11
4 5 5 5 5 6 6 6 6 6 7 7 6 7 6 5 5 5 5 5 6 6 6 4 5 4 5 6 7 8 9 9 10 10 11 11 11 11 12 12 12 11 12
5 5 5 5 6 6 6 6 7 7 8 8 7 8 8 7 5 5 5 5 6 6 8 7 5 5 6 7 7 8 9 9 9 11 12 12 12 12 12 12 12 12 12
5 5 5 5 5 6 6 7 7 7 8 9 8 8 8 6 8 6 6 6 6 6 7 8 7 6 7 7 8 8 8 8 9 11 12 13 13 13 13 13 13 13 13
5 5 5 6 6 6 7 7 8 8 8 8 8 8 8 8 8 7 7 7 6 6 6 7 7 6 6 6 7 7 8 7 9 9 11 12 13 13 14 14 14 13 13
5 5 5 6 6 6 7 7 7 8 8 8 8 7 8 8 9 8 7 7 7 7 7 7 7 6 6 6 6 6 6 6 6 7 9 10 12 13 14 14 14 13 13
5 5 5 5 6 6 6 7 7 7 8 8 7 7 8 9 9 8 7 7 7 7 7 7 7 7 6 5 5 5 7 7 7 6 6 7 8 9 10 12 13 13 14
4 4 5 5 6 6 7 9 8 7 7 8 8 7 7 9 9 10 10 10 9 9 8 8 7 8 8 7 6 6 6 6 6 4 6 7 7 8 8 10 11 12 14
4 4 5 5 6 6 7 8 9 7 7 7 7 7 6 7 8 7 8 9 9 11 11 10 10 10 9 7 7 8 7 8 8 6 6 8 7 8 8 10 12 14 15
4 4 5 5 5 5 6 7 7 6 6 7 7 7 8 7 7 7 7 7 8 8 9 9 9 9 8 8 8 8 8 9 9 8 6 8 7 8 8 9 12 13 14
4 4 4 4 5 5 6 6 6 4 5 6 6 7 8 7 8 9 8 7 8 7 8 10 12 11 12 11 10 7 7 7 8 7 6 6 6 7 8 8 9 11 13
3 3 3 4 4 4 5 6 6 4 4 5 5 6 8 9 9 9 8 7 8 7 6 7 8 10 10 10 11 9 8 8 7 6 5 5 5 4 5 5 6 6 8
Wind_Direction
126 118 106 96 97 101 107 105 97 89 82 79 72 75 78 75 72 73 65 51 47 51 68 82 90 88 88 87 83 76 81 84 85 81 74 67 63 61 63 64 64 63 63
133 135 131 121 116 113 111 121 115 107 95 91 87 78 79 80 82 81 69 59 49 42 46 62 78 82 84 84 88 85 77 80 82 85 81 74 64 57 58 57 63 59 57
152 144 152 146 143 144 133 125 117 111 102 104 108 88 83 73 83 79 59 45 49 45 39 40 51 70 74 83 87 89 83 76 77 76 73 69 63 51 50 49 53 50 45
160 157 152 160 161 158 152 148 149 139 138 144 148 122 100 100 211 120 81 30 23 15 34 37 37 44 39 75 88 88 89 81 81 73 65 58 55 39 36 36 26 21 6
173 171 162 163 172 166 167 168 172 168 164 159 162 195 232 212 230 219 204 202 21 351 334 42 42 35 24 17 98 93 64 61 77 72 53 40 22 13 14 15 359 342 325
178 174 174 186 175 178 178 178 169 160 167 161 155 249 262 234 242 228 227 211 208 234 290 297 270 16 23 17 21 19 352 351 7 6 16 356 1 319 290 302 324 318 313
181 182 190 197 192 192 192 183 168 160 159 157 180 228 248 236 242 242 239 231 218 221 230 244 249 256 253 287 7 2 357 330 309 305 300 319 307 330 304 281 287 298 302
191 196 200 202 203 199 192 187 175 181 189 191 213 211 221 212 228 250 244 240 237 228 229 233 230 232 248 234 281 300 315 315 318 310 299 292 300 291 302 292 274 277 285
201 196 205 208 205 203 201 199 198 198 199 205 226 233 226 225 228 215 235 242 246 236 233 234 233 231 233 234 244 236 285 291 297 299 302 302 298 293 285 291 287 275 274
206 201 207 207 208 213 210 207 212 215 208 207 214 249 273 286 232 216 219 233 247 248 240 239 237 232 231 230 237 274 275 277 282 288 292 291 291 294 297 290 291 283 278
211 209 212 212 212 217 218 214 211 214 215 217 215 220 233 248 248 243 241 236 242 244 250 253 248 235 229 230 238 270 270 275 277 283 286 289 292 295 296 299 301 298 287
220 216 217 220 218 219 221 220 219 218 220 224 225 223 221 225 228 231 242 242 251 253 255 249 244 238 231 230 245 275 264 264 272 278 284 287 290 292 295 293 294 292 296
233 226 226 228 227 225 224 222 224 224 224 225 227 228 229 236 243 238 237 247 257 263 250 241 235 235 233 238 248 261 255 261 271 275 277 281 286 289 289 287 286 289 286
241 237 231 232 233 230 227 225 228 228 228 228 232 231 229 232 236 235 234 237 248 255 247 242 230 230 235 238 254 256 254 259 268 273 276 280 281 282 284 285 284 284 284
247 242 235 233 234 232 229 227 229 229 229 230 232 234 233 232 236 237 233 231 238 247 250 242 234 227 240 247 254 254 259 263 264 266 271 275 276 277 279 279 279 281 283
242 238 241 234 235 234 230 229 231 231 231 232 231 231 233 235 235 232 230 235 241 248 253 251 253 260 254 257 263 260 260 265 258 260 266 270 272 273 275 276 275 277 280
235 235 237 238 234 233 232 232 233 233 233 235 234 231 233 235 235 231 226 229 235 240 252 258 254 260 261 260 262 263 260 260 260 259 263 266 268 270 269 270 271 272 274
238 235 238 238 240 239 235 232 234 235 234 235 234 233 237 235 235 231 227 230 235 238 246 257 260 258 261 266 265 267 261 258 261 262 262 265 266 267 268 269 268 269 270
242 240 236 237 240 243 241 237 237 237 238 238 237 236 238 235 233 231 232 235 238 242 246 252 260 261 263 265 268 268 265 259 262 262 260 260 260 263 266 266 264 266 266
242 241 238 238 239 242 243 239 237 239 240 241 241 239 242 239 235 234 235 237 239 242 243 246 254 258 261 266 266 267 272 261 263 265 261 260 261 261 261 261 260 261 263
246 246 245 243 242 241 240 241 238 237 239 242 242 241 244 243 241 240 240 239 238 241 244 247 252 256 253 257 259 263 272 272 269 263 265 261 262 262 260 256 254 256 259
252 250 249 247 244 243 243 245 244 238 238 238 240 241 243 240 238 242 247 248 244 243 243 246 251 252 254 257 262 261 268 275 269 261 270 271 266 264 263 261 259 260 262
257 256 253 251 250 249 246 245 246 244 240 240 240 241 244 241 238 239 243 246 251 251 247 247 252 256 261 259 263 263 260 268 272 274 274 273 268 266 268 263 260 260 261
261 259 259 255 256 253 248 249 249 246 245 243 240 239 241 242 238 237 241 245 248 250 248 246 251 258 263 264 260 263 267 271 275 272 259 268 272 273 274 267 257 257 262
266 265 264 260 259 259 250 252 253 253 247 246 244 239 238 240 240 241 240 242 250 254 252 248 254 260 266 270 267 265 261 261 270 271 256 258 273 284 279 271 263 257 261
267 274 278 275 270 270 259 255 255 253 250 249 249 243 238 241 242 243 242 244 250 256 257 259 256 256 258 258 255 247 248 251 261 265 248 244 264 283 281 268 270 273 269
Height
1535 1536 1537 1538 1538 1539 1539 1540 1541 1541 1542 1542 1543 1544 1545 1545 1545 1546 1546 1547 1547 1548 1549 1549 1550 1550 1551 1551 1551 1551 1551 1551 1551 1552 1552 1551 1551 1552 1552 1552 1552 1552 1552
1533 1534 1535 1535 1536 1537 1537 1538 1539 1539 1540 1541 1541 1542 1542 1543 1544 1544 1545 1545 1546 1546 1547 1548 1548 1549 1549 1550 1550 1550 1550 1551 1551 1551 1551 1551 1551 1551 1551 1551 1551 1551 1551
1531 1531 1532 1533 1534 1535 1535 1536 1537 1538 1538 1539 1539 1540 1540 1541 1542 1542 1543 1543 1544 1544 1545 1546 1546 1547 1547 1548 1548 1548 1549 1549 1549 1549 1549 1550 1550 1550 1550 1550 1550 1550 1550
1529 1529 1530 1531 1532 1532 1533 1534 1535 1535 1536 1537 1537 1538 1538 1539 1539 1540 1541 1541 1542 1542 1543 1544 1544 1545 1546 1546 1546 1547 1547 1547 1548 1548 1548 1548 1548 1548 1548 1548 1548 1548 1549
1526 1527 1527 1528 1529 1530 1531 1531 1532 1533 1534 1534 1535 1536 1536 1537 1537 1538 1538 1539 1539 1540 1541 1541 1542 1543 1543 1544 1544 1545 1545 1545 1545 1546 1546 1546 1546 1547 1547 1547 1547 1547 1547
1523 1524 1525 1526 1526 1527 1528 1529 1530 1530 1531 1532 1533 1533 1534 1534 1534 1535 1535 1536 1537 1537 1538 1539 1539 1540 1541 1541 1542 1542 1542 1543 1543 1544 1544 1544 1544 1544 1545 1545 1545 1545 1545
1520 1521 1522 1523 1524 1524 1525 1526 1527 1528 1529 1530 1531 1531 1532 1532 1532 1532 1533 1533 1534 1534 1535 1536 1537 1537 1537 1538 1539 1539 1540 1540 1540 1541 1541 1542 1542 1542 1542 1542 1542 1542 1542
1517 1518 1519 1520 1521 1521 1522 1523 1524 1525 1526 1527 1529 1529 1530 1531 1529 1529 1530 1530 1531 1532 1532 1533 1534 1534 1535 1535 1535 1536 1537 1537 1538 1538 1538 1539 1539 1539 1539 1539 1539 1540 1540
1514 1515 1516 1516 1517 1518 1519 1520 1521 1522 1523 1524 1526 1528 1528 1528 1527 1527 1526 1527 1528 1528 1529 1530 1530 1531 1531 1532 1532 1533 1533 1534 1534 1535 1535 1535 1536 1536 1536 1536 1536 1536 1536
1510 1511 1512 1513 1514 1515 1516 1517 1518 1519 1520 1521 1522 1523 1524 1524 1525 1525 1524 1524 1525 1525 1526 1526 1527 1527 1528 1528 1529 1529 1530 1530 1531 1531 1531 1532 1532 1532 1532 1533 1533 1533 1533
1506 1507 1508 1509 1510 1511 1512 1513 1514 1515 1516 1517 1518 1519 1520 1521 1521 1522 1522 1521 1521 1522 1522 1523 1523 1524 1524 1525 1525 1525 1526 1526 1527 1527 1527 1527 1528 1528 1528 1528 1528 1529 1529
1501 1503 1504 1505 1506 1507 1508 1509 1510 1511 1512 1513 1514 1515 1516 1517 1517 1518 1518 1518 1518 1518 1518 1518 1519 1519 1520 1521 1521 1521 1522 1522 1522 1523 1523 1523 1523 1523 1523 1523 1524 1524 1524
1497 1498 1499 1500 1502 1503 1504 1505 1506 1506 1507 1508 1509 1510 1511 1512 1513 1514 1514 1514 1514 1514 1514 1514 1515 1515 1515 1516 1516 1517 1517 1518 1518 1518 1518 1518 1518 1518 1518 1518 1519 1519 1519
1492 1493 1495 1496 1497 1498 1499 1500 1501 1502 1502 1503 1504 1505 1506 1507 1508 1509 1510 1511 1510 1510 1510 1510 1510 1510 1511 1511 1512 1512 1512 1513 1513 1513 1513 1513 1513 1513 1513 1513 1513 1513 1513
1488 1489 1490 1491 1492 1493 1494 1495 1496 1496 1497 1498 1499 1500 1501 1502 1503 1504 1505 1506 1508 1507 1506 1505 1506 1506 1506 1506 1507 1507 1507 1507 1508 1508 1508 1508 1508 1508 1507 1507 1508 1508 1507
1483 1484 1485 1486 1487 1488 1489 1490 1490 1491 1492 1493 1494 1495 1496 1498 1498 1499 1500 1501 1502 1502 1501 1500 1501 1501 1501 1501 1501 1502 1502 1502 1502 1502 1502 1502 1502 1502 1502 1502 1502 1502 1501
1479 1479 1480 1481 1482 1483 1484 1484 1485 1486 1487 1488 1489 1490 1491 1492 1493 1494 1494 1495 1496 1497 1496 1495 1496 1495 1496 1496 1496 1496 1496 1496 1496 1496 1496 1496 1496 1496 1495 1495 1495 1495 1495
1473 1474 1475 1475 1476 1477 1478 1479 1479 1480 1481 1482 1484 1485 1486 1487 1487 1488 1489 1489 1490 1491 1491 1490 1490 1490 1490 1490 1490 1490 1490 1490 1489 1489 1490 1490 1490 1489 1489 1489 1489 1488 1488
1469 1469 1470 1470 1471 1472 1473 1473 1474 1475 1476 1477 1478 1479 1480 1481 1481 1482 1483 1484 1484 1485 1485 1484 1484 1484 1484 1485 1485 1484 1484 1483 1483 1483 1483 1483 1483 1483 1483 1482 1482 1482 1481
1464 1464 1465 1465 1466 1466 1467 1468 1469 1470 1470 1471 1472 1473 1473 1474 1475 1476 1477 1478 1478 1479 1479 1479 1478 1478 1478 1478 1479 1478 1477 1477 1477 1477 1476 1476 1476 1476 1476 1476 1475 1475 1474
1460 1460 1460 1460 1461 1461 1462 1463 1463 1464 1465 1465 1466 1466 1467 1468 1469 1470 1471 1471 1472 1473 1473 1473 1473 1472 1472 1472 1472 1472 1472 1471 1470 1470 1469 1469 1469 1469 1468 1468 1468 1468 1467
1455 1455 1455 1455 1455 1456 1457 1457 1458 1458 1459 1459 1460 1460 1461 1462 1462 1463 1464 1465 1466 1466 1466 1466 1466 1466 1466 1467 1467 1466 1466 1465 1463 1464 1463 1462 1463 1461 1461 1461 1460 1460 1460
1451 1451 1450 1451 1450 1451 1451 1452 1452 1453 1453 1453 1453 1454 1454 1455 1455 1456 1457 1458 1459 1459 1460 1461 1460 1460 1460 1461 1461 1460 1460 1459 1458 1458 1457 1455 1455 1454 1454 1453 1453 1453 1453
1446 1446 1445 1445 1445 1445 1446 1446 1447 1447 1447 1447 1447 1448 1449 1448 1449 1450 1450 1451 1452 1452 1453 1453 1454 1454 1455 1455 1455 1455 1454 1453 1451 1451 1451 1449 1448 1447 1447 1446 1446 1446 1446
1442 1441 1441 1440 1440 1440 1440 1441 1441 1441 1440 1441 1441 1442 1442 1442 1443 1444 1445 1444 1445 1445 1446 1447 1447 1447 1448 1448 1448 1448 1447 1447 1444 1444 1445 1443 1441 1441 1439 1438 1438 1438 1438
1437 1437 1436 1436 1435 1435 1435 1436 1436 1435 1435 1435 1435 1435 1436 1436 1437 1438 1439 1439 1439 1439 1440 1440 1440 1440 1441 1441 1441 1441 1441 1441 1439 1438 1437 1438 1436 1436 1433 1431 1431 1431 1430